"2016-04-23 00:00:00",1570971,8.32,149.4,1.207,0.251,21.52,108.4008,20.79,21.8,15.61,0,111,13.05,21.61,111.4
"2016-04-23 00:00:30",1570972,8.54,146.7,1.353,0.153,21.63,108.4008,20.79,21.79,15.69,0,111,13.05,21.61,108.7
"2016-04-23 00:01:00",1570973,8.6,146.8,2.934,0.261,21.75,108.4008,20.79,21.79,15.77,0,111,13.05,21.61,108.8
"2016-04-23 00:01:30",1570974,8.48,150.1,0.785,0.312,21.83,108.4008,20.79,21.79,15.51,0,111,13.05,21.61,112.1
"2016-04-23 00:02:00",1570975,8.63,149.4,1.004,0.213,21.85,108.4008,20.79,21.77,15.6,0,111,13.05,21.61,111.4
"2016-04-23 00:02:30",1570976,8.66,149.7,0.604,0.175,21.9,108.4005,20.79,21.77,15.61,0,111,13.05,21.61,111.7
"2016-04-23 00:03:00",1570977,8.61,151.5,2.419,0.175,21.94,108.3994,20.78,21.75,15.7,0,111,13.05,21.61,113.5
"2016-04-23 00:03:30",1570978,8.8,153.5,2.434,0.346,21.94,108.3932,20.77,21.76,15.65,0,111,13.05,21.59,115.5
"2016-04-23 00:04:00",1570979,8.24,157.3,1.76,0.319,21.94,108.3853,20.75,21.77,15.62,0,111,13.05,21.57,119.3
"2016-04-23 00:04:30",1570980,8.18,151.7,1.061,0.35,21.92,108.373,20.72,21.75,15.69,0,111,13.05,21.54,113.7
"2016-04-23 00:05:00",1570981,8.47,148.5,1.885,0.205,21.93,108.3693,20.71,21.75,15.68,0,111,13.05,21.53,110.5
"2016-04-23 00:05:30",1570982,8.83,153.8,3.094,0.268,22,108.3671,20.7,21.74,15.58,0,111,13.05,21.53,115.8
"2016-04-23 00:06:00",1570983,8.53,154.8,2.139,0.252,21.99,108.3671,20.7,21.74,15.54,0,111,13.05,21.53,116.8
"2016-04-23 00:06:30",1570984,8.59,157.6,1.618,0.217,21.97,108.3671,20.7,21.72,15.43,0,111,13.05,21.53,119.6
"2016-04-23 00:07:00",1570985,8.66,159.4,1.797,0.211,22.02,108.3671,20.7,21.71,15.25,0,111,13.05,21.53,121.4
"2016-04-23 00:07:30",1570986,8.51,156.8,1.842,0.195,22,108.3671,20.7,21.71,15.19,0,111,13.05,21.53,118.8
"2016-04-23 00:08:00",1570987,8.52,154.3,1.765,0.183,21.94,108.3671,20.7,21.71,15.3,0,111,13.05,21.53,116.3
"2016-04-23 00:08:30",1570988,8.67,148.4,2.237,0.22,21.95,108.3671,20.7,21.71,15.88,0,111,13.05,21.53,110.4
"2016-04-23 00:09:00",1570989,8.67,152.6,3.853,0.343,22.03,108.3671,20.7,21.71,16.23,0,111,13.06,21.53,114.6
"2016-04-23 00:09:30",1570990,8.38,153.5,2.523,0.261,22,108.3645,20.69,21.7,15.93,0,111,13.06,21.52,115.5
"2016-04-23 00:10:00",1570991,8.7,153.8,1.311,0.404,22.04,108.3612,20.69,21.69,15.93,0,111,13.06,21.51,115.8
"2016-04-23 00:10:30",1570992,9,159.6,1.686,0.217,22.08,108.3561,20.67,21.68,15.35,0,111,13.06,21.50,121.6
"2016-04-23 00:11:00",1570993,8.67,157.3,1.308,0.244,22.04,108.3578,20.68,21.68,15.4,0,111,13.06,21.50,119.3
"2016-04-23 00:11:30",1570994,8.65,157.1,1.236,0.305,22.03,108.3534,20.67,21.67,15.53,0,111,13.06,21.49,119.1
"2016-04-23 00:12:00",1570995,8.46,153.3,1.061,0.221,21.95,108.3472,20.65,21.67,15.92,0,111,13.06,21.47,115.3
"2016-04-23 00:12:30",1570996,8.22,154,1.781,0.164,21.97,108.344,20.64,21.68,16.48,0,111,13.06,21.47,116.0
"2016-04-23 00:13:00",1570997,8.43,156.9,1.949,0.301,21.99,108.3395,20.63,21.67,16.43,0,111,13.06,21.45,118.9
"2016-04-23 00:13:30",1570998,8.57,154.5,1.299,0.165,22.08,108.3422,20.64,21.67,15.84,0,111,13.06,21.46,116.5
"2016-04-23 00:14:00",1570999,8.5,155,1.557,0.178,22.05,108.3431,20.64,21.66,15.53,0,111,13.06,21.46,117.0
"2016-04-23 00:14:30",1571000,8.24,154.9,1.135,0.223,22.03,108.3446,20.64,21.66,15.68,0,111,13.06,21.47,116.9
"2016-04-23 00:15:00",1571001,8.13,154.7,3.234,0.132,21.98,108.3473,20.65,21.66,16.11,0,110.9,13.06,21.47,116.7
"2016-04-23 00:15:30",1571002,8.34,155.2,1.502,0.187,22.02,108.3464,20.65,21.64,16.13,0,111,13.06,21.47,117.2
"2016-04-23 00:16:00",1571003,8.71,154.5,1.831,0.15,22.01,108.3473,20.65,21.64,16.37,0,110.9,13.06,21.47,116.5
"2016-04-23 00:16:30",1571004,8.54,150.9,0.946,0.126,22,108.3446,20.64,21.65,16.23,0,111,13.06,21.47,112.9
"2016-04-23 00:17:00",1571005,8.71,153.4,1.589,0.201,22.04,108.3483,20.65,21.64,16.35,0,110.9,13.07,21.48,115.4
"2016-04-23 00:17:30",1571006,8.56,152.4,1.846,0.24,22.03,108.3467,20.65,21.64,16.38,0,110.9,13.07,21.47,114.4
"2016-04-23 00:18:00",1571007,8.25,152,1.977,0.24,21.98,108.3477,20.65,21.62,16.5,0,111,13.07,21.48,114.0
"2016-04-23 00:18:30",1571008,8.4,155.3,3.083,0.237,22.09,108.3458,20.65,21.64,16.36,0,111,13.07,21.47,117.3
"2016-04-23 00:19:00",1571009,8.35,156.6,1.241,0.144,22.09,108.3427,20.64,21.62,15.72,0,110.9,13.07,21.46,118.6
"2016-04-23 00:19:30",1571010,8.56,152.2,1.391,0.3,22.01,108.3354,20.62,21.62,16.1,0,110.9,13.07,21.44,114.2
"2016-04-23 00:20:00",1571011,8.88,153.5,1.38,0.098,22.03,108.3325,20.61,21.63,15.86,0,110.9,13.07,21.44,115.5
"2016-04-23 00:20:30",1571012,8.72,155.5,1.587,0.14,22.04,108.3355,20.62,21.62,15.89,0,110.9,13.07,21.44,117.5
"2016-04-23 00:21:00",1571013,9.05,155.7,1.632,0.216,22.06,108.3361,20.62,21.61,15.86,0,110.9,13.06,21.45,117.7
"2016-04-23 00:21:30",1571014,9.35,153.8,2.722,0.202,22.1,108.3358,20.62,21.62,15.64,0,110.9,13.06,21.45,115.8
"2016-04-23 00:22:00",1571015,8.8,150.4,1.323,0.165,22.08,108.3361,20.62,21.6,15.66,0,110.9,13.06,21.45,112.4
"2016-04-23 00:22:30",1571016,8.97,156.5,2.874,0.178,22.09,108.3361,20.62,21.6,15.8,0,110.9,13.06,21.45,118.5
"2016-04-23 00:23:00",1571017,9.6,154.8,1.63,0.22,22.11,108.3361,20.62,21.61,15.89,0,110.9,13.06,21.45,116.8
"2016-04-23 00:23:30",1571018,9.59,151,1.616,0.351,22.08,108.3361,20.62,21.61,15.93,0,110.9,13.06,21.45,113.0
"2016-04-23 00:24:00",1571019,9.2,148.6,0.98,0.313,22.04,108.3361,20.62,21.6,16.15,0,110.9,13.06,21.45,110.6
"2016-04-23 00:24:30",1571020,9.36,148.8,1.481,0.335,22.01,108.3361,20.62,21.6,16.27,0,110.9,13.06,21.45,110.8
"2016-04-23 00:25:00",1571021,9.22,145.4,2.212,0.29,22.02,108.3361,20.62,21.59,16.37,0,110.9,13.06,21.45,107.4
"2016-04-23 00:25:30",1571022,9.44,147.4,0.616,0.136,21.97,108.3361,20.62,21.59,16.37,0,110.9,13.06,21.45,109.4
"2016-04-23 00:26:00",1571023,9.53,148.5,0.756,0.116,21.98,108.3361,20.62,21.6,16.13,0,110.9,13.06,21.45,110.5
"2016-04-23 00:26:30",1571024,9.4,148.2,0.83,0.135,22,108.3359,20.62,21.58,16.14,0,110.9,13.06,21.45,110.2
"2016-04-23 00:27:00",1571025,9.46,149.5,2.065,0.088,22,108.3356,20.62,21.59,16.28,0,110.9,13.06,21.44,111.5
"2016-04-23 00:27:30",1571026,9.01,152.4,2.431,0.153,22.05,108.3336,20.62,21.58,16.24,0,110.9,13.07,21.44,114.4
"2016-04-23 00:28:00",1571027,9.5,151.1,1.653,0.489,22.03,108.3291,20.6,21.57,16.25,0,110.9,13.07,21.43,113.1
"2016-04-23 00:28:30",1571028,9.71,149.1,1.821,0.201,21.95,108.326,20.6,21.57,16.28,0,110.9,13.07,21.42,111.1
"2016-04-23 00:29:00",1571029,9.56,154,1.325,0.29,22.02,108.3226,20.59,21.56,16.31,0,110.9,13.07,21.41,116.0
"2016-04-23 00:29:30",1571030,9.28,155,1.343,0.118,22.02,108.3117,20.56,21.57,16.42,0,110.9,13.07,21.38,117.0
"2016-04-23 00:30:00",1571031,9.35,152.8,0.879,0.102,22.01,108.3044,20.54,21.56,16.22,0,110.9,13.07,21.36,114.8
"2016-04-23 00:30:30",1571032,9.11,154,1.376,0.233,21.99,108.3027,20.54,21.58,16.21,0,110.9,13.07,21.36,116.0
"2016-04-23 00:31:00",1571033,9.21,151.4,2.174,0.211,21.93,108.3024,20.54,21.56,16.18,0,110.9,13.07,21.36,113.4
"2016-04-23 00:31:30",1571034,9.17,152.5,1.445,0.12,21.93,108.3024,20.54,21.56,16.17,0,110.9,13.07,21.36,114.5
"2016-04-23 00:32:00",1571035,9.14,151.8,1.127,0.143,21.88,108.3027,20.54,21.55,16.01,0,110.9,13.07,21.36,113.8
"2016-04-23 00:32:30",1571036,9.16,153.5,1.994,0.206,21.82,108.3024,20.54,21.55,15.95,0,110.9,13.07,21.36,115.5
"2016-04-23 00:33:00",1571037,9.41,152.5,1.874,0.121,21.79,108.3027,20.54,21.56,16.04,0,110.9,13.07,21.36,114.5
"2016-04-23 00:33:30",1571038,9.71,152.4,1.533,0.102,21.78,108.3027,20.54,21.57,16.07,0,110.9,13.07,21.36,114.4
"2016-04-23 00:34:00",1571039,9.76,154.5,1.09,0.291,21.73,108.303,20.54,21.57,16.11,0,110.9,13.07,21.36,116.5
"2016-04-23 00:34:30",1571040,10.12,152.7,0.962,0.116,21.7,108.3058,20.54,21.55,15.98,0,110.9,13.07,21.37,114.7
"2016-04-23 00:35:00",1571041,10.29,150.5,1.058,0.383,21.52,108.3142,20.57,21.57,16.42,0,110.9,13.07,21.39,112.5
"2016-04-23 00:35:30",1571042,10.48,150.3,0.984,0.286,21.57,108.3254,20.59,21.56,17.05,0,110.9,13.07,21.42,112.3
"2016-04-23 00:36:00",1571043,10.48,151.2,1.269,0.267,21.54,108.328,20.6,21.59,17.13,0,110.9,13.07,21.43,113.2
"2016-04-23 00:36:30",1571044,10.25,153,1.254,0.351,21.48,108.3309,20.61,21.59,17.23,0,110.9,13.07,21.43,115.0
"2016-04-23 00:37:00",1571045,10.11,149.8,2.312,0.241,21.47,108.3339,20.62,21.59,17.29,0,110.9,13.07,21.44,111.8
"2016-04-23 00:37:30",1571046,9.79,147.8,1.481,0.147,21.42,108.3359,20.62,21.59,17.4,0,110.9,13.07,21.45,109.8
"2016-04-23 00:38:00",1571047,9.99,149.7,1.004,0.243,21.47,108.3368,20.62,21.6,17.43,0,110.9,13.07,21.45,111.7
"2016-04-23 00:38:30",1571048,9.64,149.3,0.587,0.099,21.46,108.3368,20.62,21.6,17.37,0,110.9,13.06,21.45,111.3
"2016-04-23 00:39:00",1571049,9.35,149.2,0.743,0.139,21.45,108.3374,20.63,21.6,17.53,0,110.9,13.06,21.45,111.2
"2016-04-23 00:39:30",1571050,9.44,150,0.639,0.126,21.48,108.3392,20.63,21.61,17.19,0,110.9,13.06,21.45,112.0
"2016-04-23 00:40:00",1571051,9.21,150.6,1.481,0.124,21.51,108.3389,20.63,21.61,16.81,0,110.9,13.06,21.45,112.6
"2016-04-23 00:40:30",1571052,8.81,154.5,2.47,0.221,21.55,108.3407,20.63,21.61,16.77,0,110.9,13.06,21.46,116.5
"2016-04-23 00:41:00",1571053,8.69,150.4,2.674,0.453,21.46,108.3395,20.63,21.62,16.96,0,110.9,13.06,21.45,112.4
"2016-04-23 00:41:30",1571054,9.01,150.3,1.933,0.154,21.47,108.3395,20.63,21.62,17.1,0,110.9,13.06,21.45,112.3
"2016-04-23 00:42:00",1571055,8.87,149.4,1.335,0.179,21.42,108.3416,20.64,21.63,17.14,0,110.9,13.06,21.46,111.4
"2016-04-23 00:42:30",1571056,9.17,148.9,0.994,0.188,21.44,108.3428,20.64,21.62,16.74,0,110.9,13.07,21.46,110.9
"2016-04-23 00:43:00",1571057,8.93,147.5,1.251,0.097,21.43,108.3419,20.64,21.63,16.53,0,110.9,13.06,21.46,109.5
"2016-04-23 00:43:30",1571058,9.08,146.4,1.299,0.138,21.45,108.3425,20.64,21.64,16.51,0,110.9,13.07,21.46,108.4
"2016-04-23 00:44:00",1571059,9.18,146.1,1.042,0.217,21.41,108.3413,20.64,21.63,16.96,0,110.9,13.07,21.46,108.1
"2016-04-23 00:44:30",1571060,9.35,147.7,0.687,0.059,21.53,108.3416,20.64,21.65,16.89,0,110.9,13.07,21.46,109.7
"2016-04-23 00:45:00",1571061,9.23,148.1,0.884,0.14,21.54,108.3398,20.63,21.63,16.55,0,110.9,13.07,21.46,110.1
"2016-04-23 00:45:30",1571062,9.29,146.3,0.651,0.07,21.5,108.3413,20.64,21.64,16.49,0,110.9,13.07,21.46,108.3
"2016-04-23 00:46:00",1571063,9.36,145.1,0.777,0.132,21.43,108.3428,20.64,21.65,16.67,0,110.9,13.07,21.46,107.1
"2016-04-23 00:46:30",1571064,9.41,145.8,1,0.111,21.52,108.3425,20.64,21.64,16.87,0,110.9,13.07,21.46,107.8
"2016-04-23 00:47:00",1571065,9.48,145.9,0.435,0.112,21.56,108.3428,20.64,21.64,17.3,0,110.9,13.07,21.46,107.9
"2016-04-23 00:47:30",1571066,9.43,145.7,0.489,0.105,21.62,108.3435,20.64,21.64,17.36,0,110.9,13.07,21.47,107.7
"2016-04-23 00:48:00",1571067,9.35,146,0.788,0.075,21.65,108.3428,20.64,21.66,16.74,0,110.9,13.07,21.46,108.0
"2016-04-23 00:48:30",1571068,9.34,146.2,0.638,0.097,21.72,108.3447,20.64,21.64,17.05,0,110.9,13.07,21.47,108.2
"2016-04-23 00:49:00",1571069,9.33,145.9,0.514,0.134,21.73,108.345,20.64,21.65,17.46,0,110.9,13.07,21.47,107.9
"2016-04-23 00:49:30",1571070,9.72,146.6,0.489,0.094,21.62,108.345,20.64,21.65,17.3,0,110.9,13.07,21.47,108.6
"2016-04-23 00:50:00",1571071,9.69,145.7,0.544,0.064,21.51,108.345,20.64,21.65,17.14,0,110.9,13.07,21.47,107.7
"2016-04-23 00:50:30",1571072,9.74,145.9,0.778,0.073,21.54,108.3447,20.64,21.65,17.79,0,110.9,13.07,21.47,107.9
"2016-04-23 00:51:00",1571073,9.94,146.8,1.083,0.18,21.64,108.3444,20.64,21.64,17.89,0,110.9,13.07,21.47,108.8
"2016-04-23 00:51:30",1571074,10.11,148.2,0.517,0.101,21.56,108.3428,20.64,21.64,18.59,0,110.9,13.07,21.46,110.2
"2016-04-23 00:52:00",1571075,10.22,149.7,1.115,0.14,21.64,108.3419,20.64,21.64,18.49,0,110.9,13.07,21.46,111.7
"2016-04-23 00:52:30",1571076,9.99,151.3,1.16,0.131,21.67,108.3428,20.64,21.63,18.62,0,110.9,13.07,21.46,113.3
"2016-04-23 00:53:00",1571077,9.69,150,1.423,0.342,21.62,108.3453,20.65,21.62,18.78,0,110.9,13.07,21.47,112.0
"2016-04-23 00:53:30",1571078,9.95,149.6,0.961,0.206,21.69,108.3427,20.64,21.62,19.06,0,110.9,13.07,21.46,111.6
"2016-04-23 00:54:00",1571079,10.2,151,0.77,0.191,21.66,108.3388,20.63,21.62,19.18,0,110.9,13.07,21.45,113.0
"2016-04-23 00:54:30",1571080,10.36,152.7,0.597,0.12,21.71,108.3357,20.62,21.63,18.93,0,110.9,13.07,21.44,114.7
"2016-04-23 00:55:00",1571081,10.18,153.5,1.722,0.106,21.84,108.3281,20.6,21.62,18.63,0,110.9,13.07,21.43,115.5
"2016-04-23 00:55:30",1571082,10.09,153.7,1.167,0.083,21.83,108.3174,20.57,21.61,18.46,0,110.9,13.07,21.40,115.7
"2016-04-23 00:56:00",1571083,10.41,156.9,1.756,0.216,21.84,108.3115,20.56,21.61,18.39,0,110.9,13.07,21.38,118.9
"2016-04-23 00:56:30",1571084,9.9,156.5,1.203,0.14,21.82,108.3115,20.56,21.59,18.23,0,110.9,13.06,21.38,118.5
"2016-04-23 00:57:00",1571085,10.09,155.2,0.762,0.188,21.77,108.3109,20.56,21.59,18.28,0,110.9,13.07,21.38,117.2
"2016-04-23 00:57:30",1571086,10.38,155.2,0.572,0.108,21.74,108.3125,20.56,21.58,18.18,0,110.9,13.06,21.39,117.2
"2016-04-23 00:58:00",1571087,10.47,155.6,0.434,0.143,21.74,108.3121,20.56,21.59,18.44,0,110.9,13.06,21.38,117.6
"2016-04-23 00:58:30",1571088,10.45,156.1,0.877,0.082,21.78,108.3125,20.56,21.59,18.51,0,110.9,13.06,21.39,118.1
"2016-04-23 00:59:00",1571089,10.46,156.8,1.193,0.113,21.86,108.3121,20.56,21.58,18.49,0,110.9,13.06,21.38,118.8
"2016-04-23 00:59:30",1571090,10.39,156.1,1.01,0.137,21.86,108.3128,20.56,21.58,18.56,0,110.9,13.07,21.39,118.1
"2016-04-23 01:00:00",1571091,10.37,156.6,0.951,0.127,21.95,108.3121,20.56,21.57,18.42,0,110.9,13.06,21.38,118.6
"2016-04-23 01:00:30",1571092,10.31,155.9,0.69,0.088,21.91,108.3125,20.56,21.57,18.56,0,110.9,13.07,21.39,117.9
"2016-04-23 01:01:00",1571093,10.19,156.9,1.234,0.163,21.99,108.3134,20.56,21.57,18.76,0,110.9,13.07,21.39,118.9
"2016-04-23 01:01:30",1571094,10.43,157.1,0.802,0.194,21.91,108.3115,20.56,21.56,19.01,0,110.9,13.07,21.38,119.1
"2016-04-23 01:02:00",1571095,10.49,156.5,1.031,0.211,21.95,108.3128,20.56,21.57,18.99,0,110.9,13.07,21.39,118.5
"2016-04-23 01:02:30",1571096,10.64,156.7,0.95,0.128,22,108.3146,20.57,21.56,19.06,0,110.9,13.07,21.39,118.7
"2016-04-23 01:03:00",1571097,10.52,159.2,1.266,0.188,21.96,108.3088,20.55,21.56,19.29,0,110.9,13.07,21.38,121.2
"2016-04-23 01:03:30",1571098,10.6,163.7,1.404,0.195,21.99,108.3,20.53,21.55,19.73,0,110.9,13.07,21.35,125.7
"2016-04-23 01:04:00",1571099,10.39,161.1,2.305,0.509,21.87,108.2829,20.49,21.54,20.25,0,110.9,13.07,21.31,123.1
"2016-04-23 01:04:30",1571100,10.74,167.9,2.801,0.345,22.02,108.2799,20.48,21.53,20.12,0,110.9,13.08,21.30,129.9
"2016-04-23 01:05:00",1571101,10.51,170.6,1.356,0.209,22.19,108.2836,20.49,21.52,19.01,0,110.9,13.07,21.31,132.6
"2016-04-23 01:05:30",1571102,9.93,168.5,1.34,0.207,22.07,108.2783,20.47,21.5,19.34,0,110.9,13.07,21.30,130.5
"2016-04-23 01:06:00",1571103,9.75,170.9,1.625,0.148,22.14,108.26,20.43,21.47,19.55,0,110.9,13.07,21.25,132.9
"2016-04-23 01:06:30",1571104,9.57,170.6,0.913,0.119,22.16,108.2528,20.41,21.47,19.21,0,110.9,13.08,21.23,132.6
"2016-04-23 01:07:00",1571105,9.71,169.5,0.565,0.137,22.16,108.2574,20.42,21.46,19.12,0,110.9,13.08,21.24,131.5
"2016-04-23 01:07:30",1571106,9.58,168.7,1.48,0.121,22.13,108.2589,20.42,21.44,19.31,0,110.9,13.08,21.25,130.7
"2016-04-23 01:08:00",1571107,9.59,167,1.753,0.293,22,108.2644,20.44,21.42,19.78,0,110.9,13.08,21.26,129.0
"2016-04-23 01:08:30",1571108,9.72,166.6,1.217,0.158,22.05,108.263,20.43,21.41,19.77,0,110.9,13.08,21.26,128.6
"2016-04-23 01:09:00",1571109,9.98,167.5,2.07,0.157,22.05,108.2567,20.42,21.41,19.7,0,110.9,13.08,21.24,129.5
"2016-04-23 01:09:30",1571110,9.84,167,1.094,0.145,22.06,108.2388,20.37,21.39,19.48,0,110.9,13.08,21.20,129.0
"2016-04-23 01:10:00",1571111,10.17,168.6,1.084,0.2,22.06,108.2343,20.36,21.37,19.46,0,110.9,13.08,21.18,130.6
"2016-04-23 01:10:30",1571112,9.78,165.5,1.795,0.163,21.96,108.2349,20.36,21.37,19.78,0,110.9,13.08,21.19,127.5
"2016-04-23 01:11:00",1571113,9.72,168.5,1.043,0.157,22.04,108.2374,20.37,21.36,19.71,0,110.9,13.08,21.19,130.5
"2016-04-23 01:11:30",1571114,9.57,169.7,1.604,0.141,22,108.2371,20.37,21.35,19.61,0,110.9,13.07,21.19,131.7
"2016-04-23 01:12:00",1571115,9.9,172.3,0.901,0.146,22.01,108.2374,20.37,21.34,19.31,0,110.9,13.07,21.19,134.3
"2016-04-23 01:12:30",1571116,9.88,170.9,0.715,0.234,22.03,108.2377,20.37,21.32,18.86,0,110.9,13.07,21.19,132.9
"2016-04-23 01:13:00",1571117,10.17,172.1,1.786,0.217,22.04,108.2374,20.37,21.31,18.85,0,110.9,13.07,21.19,134.1
"2016-04-23 01:13:30",1571118,10.31,174,0.871,0.27,22.08,108.2374,20.37,21.32,18.18,0,110.9,13.07,21.19,136.0
"2016-04-23 01:14:00",1571119,10.47,173.5,0.488,0.199,22.15,108.2377,20.37,21.31,17.99,0,110.9,13.07,21.19,135.5
"2016-04-23 01:14:30",1571120,10.67,173,0.867,0.22,22.14,108.2377,20.37,21.32,17.69,0,110.9,13.07,21.19,135.0
"2016-04-23 01:15:00",1571121,10.76,172.3,0.779,0.217,22.17,108.2377,20.37,21.31,17.85,0,110.9,13.07,21.19,134.3
"2016-04-23 01:15:30",1571122,10.9,171.6,0.53,0.121,22.27,108.2377,20.37,21.3,17.82,0,110.9,13.07,21.19,133.6
"2016-04-23 01:16:00",1571123,10.85,171.9,0.953,0.119,22.22,108.2411,20.38,21.33,17.88,0,110.9,13.07,21.20,133.9
"2016-04-23 01:16:30",1571124,10.85,171.2,0.813,0.146,22.29,108.2526,20.41,21.33,17.84,0,110.9,13.07,21.23,133.2
"2016-04-23 01:17:00",1571125,10.99,171.9,0.808,0.096,22.32,108.2624,20.43,21.34,17.71,0,110.9,13.07,21.26,133.9
"2016-04-23 01:17:30",1571126,10.85,171.9,0.693,0.058,22.28,108.2644,20.44,21.34,17.7,0,110.9,13.07,21.26,133.9
"2016-04-23 01:18:00",1571127,10.63,171,0.989,0.155,22.29,108.2686,20.45,21.34,17.74,0,110.9,13.07,21.27,133.0
"2016-04-23 01:18:30",1571128,10.73,172.1,0.437,0.081,22.34,108.2711,20.46,21.34,17.72,0,110.9,13.08,21.28,134.1
"2016-04-23 01:19:00",1571129,10.63,171.5,0.53,0.077,22.32,108.2714,20.46,21.35,17.81,0,110.9,13.08,21.28,133.5
"2016-04-23 01:19:30",1571130,10.5,172.4,0.801,0.076,22.37,108.2714,20.46,21.37,17.8,0,110.9,13.08,21.28,134.4
"2016-04-23 01:20:00",1571131,10.34,172.8,0.522,0.102,22.36,108.2714,20.46,21.37,17.76,0,110.9,13.08,21.28,134.8
"2016-04-23 01:20:30",1571132,10.45,172.1,0.33,0.063,22.38,108.2714,20.46,21.37,17.83,0,110.9,13.08,21.28,134.1
"2016-04-23 01:21:00",1571133,10.39,172,0.424,0.08,22.39,108.2714,20.46,21.38,17.86,0,110.9,13.08,21.28,134.0
"2016-04-23 01:21:30",1571134,10.25,171.7,0.516,0.064,22.36,108.2714,20.46,21.38,17.89,0,110.9,13.08,21.28,133.7
"2016-04-23 01:22:00",1571135,10.29,171,0.644,0.087,22.37,108.2714,20.46,21.38,17.97,0,110.9,13.08,21.28,133.0
"2016-04-23 01:22:30",1571136,10.1,171,0.615,0.111,22.38,108.2714,20.46,21.38,17.97,0,110.9,13.09,21.28,133.0
"2016-04-23 01:23:00",1571137,10,170.7,0.635,0.084,22.42,108.2714,20.46,21.39,17.9,0,110.9,13.09,21.28,132.7
"2016-04-23 01:23:30",1571138,10,170.2,0.917,0.238,22.4,108.2717,20.46,21.4,17.85,0,110.9,13.09,21.28,132.2
"2016-04-23 01:24:00",1571139,9.83,169.9,0.965,0.157,22.4,108.2717,20.46,21.41,17.73,0,110.9,13.09,21.28,131.9
"2016-04-23 01:24:30",1571140,10.09,169.1,1.238,0.197,22.34,108.2731,20.46,21.4,17.75,0,110.9,13.09,21.28,131.1
"2016-04-23 01:25:00",1571141,10.2,167.6,0.724,0.175,22.33,108.2723,20.46,21.41,17.91,0,110.9,13.09,21.28,129.6
"2016-04-23 01:25:30",1571142,10.47,167.4,0.568,0.109,22.3,108.272,20.46,21.42,18.08,0,110.9,13.09,21.28,129.4
"2016-04-23 01:26:00",1571143,10.54,166.9,0.42,0.081,22.32,108.2714,20.46,21.41,18.15,0,110.9,13.09,21.28,128.9
"2016-04-23 01:26:30",1571144,10.69,167.4,0.682,0.12,22.32,108.2714,20.46,21.42,18.15,0,110.9,13.09,21.28,129.4
"2016-04-23 01:27:00",1571145,10.81,167.4,0.656,0.07,22.34,108.2714,20.46,21.41,18.15,0,110.9,13.09,21.28,129.4
"2016-04-23 01:27:30",1571146,10.85,167.3,0.508,0.056,22.32,108.2714,20.46,21.4,18.16,0,110.9,13.09,21.28,129.3
"2016-04-23 01:28:00",1571147,10.86,167.7,0.604,0.083,22.36,108.2714,20.46,21.4,18.17,0,110.9,13.09,21.28,129.7
"2016-04-23 01:28:30",1571148,10.9,167.2,0.724,0.118,22.36,108.2714,20.46,21.4,18.23,0,110.9,13.09,21.28,129.2
"2016-04-23 01:29:00",1571149,10.91,166.2,0.674,0.061,22.33,108.2706,20.45,21.39,18.26,0,110.9,13.09,21.28,128.2
"2016-04-23 01:29:30",1571150,10.71,167.6,0.649,0.093,22.35,108.2655,20.44,21.4,18.24,0,110.9,13.08,21.26,129.6
"2016-04-23 01:30:00",1571151,10.62,167.3,0.641,0.063,22.31,108.2624,20.43,21.39,18.26,0,110.9,13.09,21.26,129.3
"2016-04-23 01:30:30",1571152,10.53,167.2,0.764,0.094,22.35,108.2593,20.43,21.4,18.3,0,110.9,13.08,21.25,129.2
"2016-04-23 01:31:00",1571153,10.36,167.6,0.891,0.142,22.37,108.2498,20.4,21.38,18.27,0,110.9,13.08,21.22,129.6
"2016-04-23 01:31:30",1571154,10.34,167.1,0.765,0.115,22.37,108.2416,20.38,21.38,18.31,0,110.9,13.08,21.20,129.1
"2016-04-23 01:32:00",1571155,10.07,167.9,0.64,0.142,22.41,108.2377,20.37,21.39,18.23,0,110.9,13.08,21.19,129.9
"2016-04-23 01:32:30",1571156,10.13,166.6,0.7,0.063,22.36,108.2377,20.37,21.38,18.24,0,110.9,13.08,21.19,128.6
"2016-04-23 01:33:00",1571157,10.07,166.4,0.467,0.081,22.41,108.2377,20.37,21.37,18.23,0,110.9,13.08,21.19,128.4
"2016-04-23 01:33:30",1571158,10.13,166.2,0.622,0.109,22.34,108.238,20.37,21.37,18.23,0,110.9,13.08,21.19,128.2
"2016-04-23 01:34:00",1571159,10.09,166.6,0.964,0.14,22.4,108.238,20.37,21.38,18.26,0,110.9,13.08,21.19,128.6
"2016-04-23 01:34:30",1571160,9.93,166,1.429,0.141,22.37,108.238,20.37,21.36,18.24,0,110.9,13.08,21.19,128.0
"2016-04-23 01:35:00",1571161,9.94,164.8,0.92,0.135,22.35,108.2389,20.37,21.37,18.29,0,110.9,13.08,21.20,126.8
"2016-04-23 01:35:30",1571162,10.05,165.5,0.643,0.102,22.37,108.2398,20.37,21.35,18.25,0,110.9,13.09,21.20,127.5
"2016-04-23 01:36:00",1571163,9.99,166.1,0.762,0.201,22.38,108.2407,20.38,21.36,18.25,0,110.9,13.09,21.20,128.1
"2016-04-23 01:36:30",1571164,9.74,165.2,1.378,0.105,22.33,108.2407,20.38,21.35,18.25,0,110.9,13.09,21.20,127.2
"2016-04-23 01:37:00",1571165,9.93,165.2,0.725,0.131,22.33,108.2404,20.38,21.36,18.26,0,110.9,13.09,21.20,127.2
"2016-04-23 01:37:30",1571166,9.62,166.1,1.326,0.129,22.37,108.2435,20.38,21.36,18.24,0,110.9,13.09,21.21,128.1
"2016-04-23 01:38:00",1571167,9.64,165.1,1.026,0.109,22.37,108.2435,20.38,21.37,18.21,0,110.9,13.09,21.21,127.1
"2016-04-23 01:38:30",1571168,9.76,162.9,0.735,0.071,22.29,108.248,20.4,21.37,18.23,0,110.9,13.09,21.22,124.9
"2016-04-23 01:39:00",1571169,9.74,162.2,0.591,0.144,22.28,108.2477,20.4,21.36,18.3,0,110.9,13.09,21.22,124.2
"2016-04-23 01:39:30",1571170,9.6,163.3,0.728,0.063,22.31,108.2505,20.4,21.35,18.31,0,110.9,13.09,21.23,125.3
"2016-04-23 01:40:00",1571171,9.75,163.1,0.691,0.137,22.3,108.2529,20.41,21.36,18.32,0,110.9,13.09,21.23,125.1
"2016-04-23 01:40:30",1571172,9.92,161.7,0.614,0.073,22.28,108.2512,20.4,21.35,18.3,0,110.8,13.09,21.23,123.7
"2016-04-23 01:41:00",1571173,9.82,162.2,0.479,0.087,22.28,108.2437,20.38,21.34,18.26,0,110.9,13.09,21.21,124.2
"2016-04-23 01:41:30",1571174,9.8,162.7,0.649,0.08,22.3,108.2306,20.35,21.34,18.27,0,110.8,13.09,21.17,124.7
"2016-04-23 01:42:00",1571175,9.84,162.8,0.701,0.06,22.29,108.2289,20.35,21.35,18.2,0,110.9,13.09,21.17,124.8
"2016-04-23 01:42:30",1571176,9.92,164.2,0.683,0.127,22.37,108.2248,20.34,21.34,18.16,0,110.9,13.09,21.16,126.2
"2016-04-23 01:43:00",1571177,9.88,163.4,0.767,0.07,22.29,108.2234,20.33,21.32,18.22,0,110.9,13.09,21.16,125.4
"2016-04-23 01:43:30",1571178,9.87,162.8,0.7,0.153,22.33,108.2224,20.33,21.34,18.17,0,110.9,13.09,21.15,124.8
"2016-04-23 01:44:00",1571179,9.99,162.3,0.229,0.06,22.29,108.2234,20.33,21.33,18.15,0,110.9,13.09,21.16,124.3
"2016-04-23 01:44:30",1571180,10.02,162.8,0.132,0.07,22.32,108.2271,20.34,21.34,18.18,0,110.9,13.09,21.17,124.8
"2016-04-23 01:45:00",1571181,9.87,162.7,0.444,0.058,22.31,108.2268,20.34,21.33,18.24,0,110.9,13.09,21.16,124.7
"2016-04-23 01:45:30",1571182,9.66,161.8,0.553,0.054,22.32,108.2313,20.35,21.32,18.25,0,110.8,13.09,21.18,123.8
"2016-04-23 01:46:00",1571183,9.57,160,0.728,0.049,22.37,108.2304,20.35,21.33,18.24,0,110.8,13.09,21.17,122.0
"2016-04-23 01:46:30",1571184,9.69,159,0.02,0.047,22.26,108.231,20.35,21.32,18.28,0,110.8,13.09,21.18,121.0
"2016-04-23 01:47:00",1571185,9.62,159.2,0.426,0.052,22.25,108.2334,20.36,21.33,18.37,0,110.8,13.1,21.18,121.2
"2016-04-23 01:47:30",1571186,9.55,159.7,0.515,0.072,22.28,108.2362,20.37,21.32,18.4,0,110.8,13.1,21.19,121.7